Kt Birdie — 3FUJ7 — position and weather

sailwx.info

Track history (hours):
 
Tides and Currents Weather Stations Pressure Air Temp Water Temp Dewpoint Dewpoint Depression Visibility Wind Speed Wind Dir Waves Ship Positions

Kt Birdie

Last reported at 2016-Dec-11 08:28 UTC. Time now 2017-Jan-21 10:39 UTC.
Position S 33°13' E 152°24'.
Warning: this ship's position is 41 days out of date.

Length 225 m; draft 14 m.

Type: Cargo ship. MMSI: 354803000.

Date/timePositionNaut miles runAvg speedWind from/ knotsBaromVisibWave heightAir tempDewpointWater temp
2016-Dec-11 08:28S 33°13' E 152°24'910.0
2016-Dec-11 07:32S 33°09' E 152°14'1010.5
2016-Dec-11 06:33S 33°05' E 152°03'10 9.9
2016-Dec-11 05:33S 32°59' E 151°53'6 6.2
2016-Dec-11 04:33S 32°55' E 151°47'3 2.9
2016-Dec-11 03:34S 32°53' E 151°45'0 0.1
2016-Dec-11 02:29S 32°53' E 151°45'0 0.0
2016-Dec-11 01:17S 32°53' E 151°45'0 0.0
2016-Dec-10 20:23S 32°53' E 151°45'0 0.0
2016-Dec-10 19:29S 32°53' E 151°45'0 0.0
2016-Dec-10 18:32S 32°53' E 151°45'0 0.0
2016-Dec-10 17:26S 32°53' E 151°45'0 0.0
2016-Dec-10 16:29S 32°53' E 151°45'0 0.0
2016-Dec-10 15:29S 32°53' E 151°45'0 0.0
2016-Dec-10 14:29S 32°53' E 151°45'0 0.0
2016-Dec-10 13:29S 32°53' E 151°45'0 0.1
2016-Dec-10 12:33S 32°53' E 151°45'3 3.0
2016-Dec-10 11:32S 32°55' E 151°48'7 6.0
2016-Dec-10 10:26S 33°00' E 151°53'6 7.0
2016-Dec-10 09:33S 33°06' E 151°56'2 2.2
2016-Dec-10 08:33S 33°07' E 151°58'4 3.6
2016-Dec-10 07:33S 33°04' E 151°58'3 3.0
2016-Dec-10 06:34S 33°05' E 151°55'6 2.0
2016-Dec-10 03:32S 33°09' E 151°49'1 1.2
2016-Dec-10 02:21S 33°08' E 151°50'2 2.8
2016-Dec-10 01:30S 33°07' E 151°53'4 3.7
2016-Dec-10 00:33S 33°05' E 151°56'3 3.4
2016-Dec-09 23:33S 33°03' E 151°59'4 3.8
2016-Dec-09 22:33S 33°00' E 152°03'4 4.1
2016-Dec-09 21:33S 33°03' E 152°07'6 5.8
2016-Dec-09 20:33S 33°08' E 152°08'0 0.3
2016-Dec-09 19:20S 33°08' E 152°08'2 1.9
2016-Dec-09 18:25S 33°07' E 152°08'2 1.7
2016-Dec-09 17:28S 33°05' E 152°07'2 1.9
2016-Dec-09 16:33S 33°04' E 152°06'3 2.5
2016-Dec-09 15:33S 33°02' E 152°04'3 2.6
2016-Dec-09 14:33S 32°60' E 152°02'2 2.4
2016-Dec-09 13:33S 32°58' E 152°00'1 1.3
2016-Dec-09 12:33S 32°59' E 152°00'1 1.3
2016-Dec-09 11:33S 33°01' E 152°00'1 1.0
2016-Dec-09 10:32S 33°02' E 151°60'1 1.0
2016-Dec-09 09:32S 33°03' E 151°59'1 0.9
2016-Dec-09 08:31S 33°03' E 151°59'5 3.6
2016-Dec-09 07:05S 32°58' E 151°59'5 8.8
2016-Dec-09 06:33S 32°56' E 152°04'1212.2
2016-Dec-09 05:33S 32°49' E 152°15'1212.4
2016-Dec-09 04:33S 32°42' E 152°28'1211.5
2016-Dec-09 03:33S 32°34' E 152°38'27513.1
2016-Dec-08 06:29S 28°13' E 154°17'1111.5
2016-Dec-08 05:31S 28°02' E 154°12'1212.6
2016-Dec-08 04:33S 27°50' E 154°15'1515.0
2016-Dec-08 03:33S 27°35' E 154°15'1515.1
2016-Dec-08 02:33S 27°20' E 154°16'1915.1
2016-Dec-08 01:16S 27°01' E 154°19'1114.9
2016-Dec-08 00:33S 26°50' E 154°20'1614.8
2016-Dec-07 23:30S 26°35' E 154°22'1414.9
2016-Dec-07 22:33S 26°21' E 154°23'  
Track history (hours):
 
Tides and Currents Weather Stations Pressure Air Temp Water Temp Dewpoint Dewpoint Depression Visibility Wind Speed Wind Dir Waves Ship Positions

Kt Birdie

Last reported at 2016-Dec-11 08:28 UTC. Time now 2017-Jan-21 10:39 UTC.
Position S 33°13' E 152°24'.
Warning: this ship's position is 41 days out of date.

Length 225 m; draft 14 m.

Type: Cargo ship. MMSI: 354803000.

Date/timePositionNaut miles runAvg speedWind from/ knotsBaromVisibWave heightAir tempDewpointWater temp
2016-Dec-11 08:28S 33°13' E 152°24'910.0
2016-Dec-11 07:32S 33°09' E 152°14'1010.5
2016-Dec-11 06:33S 33°05' E 152°03'10 9.9
2016-Dec-11 05:33S 32°59' E 151°53'6 6.2
2016-Dec-11 04:33S 32°55' E 151°47'3 2.9
2016-Dec-11 03:34S 32°53' E 151°45'0 0.1
2016-Dec-11 02:29S 32°53' E 151°45'0 0.0
2016-Dec-11 01:17S 32°53' E 151°45'0 0.0
2016-Dec-10 20:23S 32°53' E 151°45'0 0.0
2016-Dec-10 19:29S 32°53' E 151°45'0 0.0
2016-Dec-10 18:32S 32°53' E 151°45'0 0.0
2016-Dec-10 17:26S 32°53' E 151°45'0 0.0
2016-Dec-10 16:29S 32°53' E 151°45'0 0.0
2016-Dec-10 15:29S 32°53' E 151°45'0 0.0
2016-Dec-10 14:29S 32°53' E 151°45'0 0.0
2016-Dec-10 13:29S 32°53' E 151°45'0 0.1
2016-Dec-10 12:33S 32°53' E 151°45'3 3.0
2016-Dec-10 11:32S 32°55' E 151°48'7 6.0
2016-Dec-10 10:26S 33°00' E 151°53'6 7.0
2016-Dec-10 09:33S 33°06' E 151°56'2 2.2
2016-Dec-10 08:33S 33°07' E 151°58'4 3.6
2016-Dec-10 07:33S 33°04' E 151°58'3 3.0
2016-Dec-10 06:34S 33°05' E 151°55'6 2.0
2016-Dec-10 03:32S 33°09' E 151°49'1 1.2
2016-Dec-10 02:21S 33°08' E 151°50'2 2.8
2016-Dec-10 01:30S 33°07' E 151°53'4 3.7
2016-Dec-10 00:33S 33°05' E 151°56'3 3.4
2016-Dec-09 23:33S 33°03' E 151°59'4 3.8
2016-Dec-09 22:33S 33°00' E 152°03'4 4.1
2016-Dec-09 21:33S 33°03' E 152°07'6 5.8
2016-Dec-09 20:33S 33°08' E 152°08'0 0.3
2016-Dec-09 19:20S 33°08' E 152°08'2 1.9
2016-Dec-09 18:25S 33°07' E 152°08'2 1.7
2016-Dec-09 17:28S 33°05' E 152°07'2 1.9
2016-Dec-09 16:33S 33°04' E 152°06'3 2.5
2016-Dec-09 15:33S 33°02' E 152°04'3 2.6
2016-Dec-09 14:33S 32°60' E 152°02'2 2.4
2016-Dec-09 13:33S 32°58' E 152°00'1 1.3
2016-Dec-09 12:33S 32°59' E 152°00'1 1.3
2016-Dec-09 11:33S 33°01' E 152°00'1 1.0
2016-Dec-09 10:32S 33°02' E 151°60'1 1.0
2016-Dec-09 09:32S 33°03' E 151°59'1 0.9
2016-Dec-09 08:31S 33°03' E 151°59'5 3.6
2016-Dec-09 07:05S 32°58' E 151°59'5 8.8
2016-Dec-09 06:33S 32°56' E 152°04'1212.2
2016-Dec-09 05:33S 32°49' E 152°15'1212.4
2016-Dec-09 04:33S 32°42' E 152°28'1211.5
2016-Dec-09 03:33S 32°34' E 152°38'27513.1
2016-Dec-08 06:29S 28°13' E 154°17'1111.5
2016-Dec-08 05:31S 28°02' E 154°12'1212.6
2016-Dec-08 04:33S 27°50' E 154°15'1515.0
2016-Dec-08 03:33S 27°35' E 154°15'1515.1
2016-Dec-08 02:33S 27°20' E 154°16'1915.1
2016-Dec-08 01:16S 27°01' E 154°19'1114.9
2016-Dec-08 00:33S 26°50' E 154°20'1614.8
2016-Dec-07 23:30S 26°35' E 154°22'1414.9
2016-Dec-07 22:33S 26°21' E 154°23'  

Dump ship's entire track history